Location: Ladysmith
(45.4630°N, 91.1040°W)
Time: 04:35:11
(UTC-06:00)

Amateur Radio Satellites - All Passes

Search period start: 07 February 2016 04:05
Search period end: 08 February 2016 04:05
Location: Ladysmith, 45.4630°N, 91.1040°W

Satellite Date Start Highest point End Downlink Frequencies (MHz)
Time Altitude Azimuth
BEESAT 2 07 Feb 04:13:45 04:15:57 14° 249° (WSW) 04:18:09 435.950
AO-7 07 Feb 04:20:07 04:28:31 85° 108° (ESE) 04:36:50 29.400- 29.500
Gurwin Techsat 1B 07 Feb 04:24:43 04:26:58 13° 305° (NW) 04:29:12 435.225
PHONESAT 2.4 07 Feb 04:33:31 04:36:32 34° 180° (S) 04:39:32 2401.200-2431.200
CUTE-I 07 Feb 04:56:56 04:58:12 11° 86° (E) 04:59:27 437.470
STRAND 1 07 Feb 04:58:56 05:02:22 18° 59° (ENE) 05:05:48 437.568
M-CUBED/EXP-1 PRIME 07 Feb 05:01:16 05:04:25 40° 293° (WNW) 05:07:39 437.505
SO-50 07 Feb 05:06:27 05:10:37 29° 114° (ESE) 05:14:51 436.795
Cubesat XI-IV 07 Feb 05:08:15 05:11:06 14° 88° (E) 05:13:57 437.490
Cosmos 2491 07 Feb 05:10:25 05:13:56 13° 289° (WNW) 05:17:27 435.465 / 435.565
HORYU 2 07 Feb 05:12:37 05:16:55 48° 289° (WNW) 05:21:11 437.375
AUBIESAT-1 07 Feb 05:14:03 05:17:09 35° 294° (WNW) 05:20:21 437.475
DANDE 07 Feb 05:28:43 05:32:02 13° 313° (NW) 05:35:27 436.750
CUBESAT XI-V 07 Feb 05:35:14 05:39:35 38° 263° (W) 05:43:59 437.345
Cosmos 2504 07 Feb 05:42:58 05:51:32 82° 279° (W) 06:00:30 435.465 / 435.565
AIST 2 07 Feb 05:43:32 05:46:09 16° 249° (WSW) 05:48:44 435.215
YUBILEINY 07 Feb 06:04:34 06:10:24 19° 304° (WNW) 06:16:17 435.215
PHONESAT 2.4 07 Feb 06:10:44 06:13:23 23° 196° (SSW) 06:16:02 2401.200-2431.200
AO-7 07 Feb 06:13:51 06:20:24 27° 310° (NW) 06:26:55 29.400- 29.500
GOMX 1 07 Feb 06:33:04 06:36:37 22° 92° (E) 06:39:59 467.674
CUTE-I 07 Feb 06:33:41 06:39:06 79° 103° (ESE) 06:44:29 437.470
STRAND 1 07 Feb 06:35:55 06:41:00 68° 258° (WSW) 06:46:09 437.568
SO-50 07 Feb 06:46:12 06:50:57 46° 313° (NW) 06:55:45 436.795
Cubesat XI-IV 07 Feb 06:46:25 06:51:50 82° 286° (WNW) 06:57:13 437.490
LilacSat-2 07 Feb 06:48:05 06:51:52 65° 284° (WNW) 06:55:35 437.200
BRITE-PL 07 Feb 06:48:25 06:53:21 64° 100° (E) 06:57:51 437.365/2234.400
PRISM 07 Feb 06:57:09 07:01:17 69° 73° (ENE) 07:05:27 437.425
CUTE 1.7 + AOD 2 07 Feb 07:20:56 07:23:25 15° 90° (E) 07:25:54 437.475
SEEDS 07 Feb 07:32:49 07:35:19 15° 90° (E) 07:37:49 437.485
GONETS M04 07 Feb 07:35:13 07:40:50 19° 76° (ENE) 07:46:27
Cosmos 2504 07 Feb 07:40:21 07:46:28 21° 302° (WNW) 07:52:45 435.465 / 435.565
CINEMA 3 07 Feb 07:47:17 07:50:34 22° 93° (E) 07:53:50 145.822/145.860
AAUSAT CUBESAT 2 07 Feb 07:55:49 07:58:29 16° 91° (E) 08:01:09 437.432
HO-68 07 Feb 07:56:25 08:03:14 43° 98° (E) 08:09:59 435.675
O/OREOS (USA 219) 07 Feb 07:58:17 08:02:09 29° 104° (ESE) 08:06:03 437.305
CANX-2 07 Feb 08:04:12 08:08:21 47° 99° (E) 08:12:29 2200.000
DOVE 4 07 Feb 08:06:59 08:11:21 77° 285° (WNW) 08:15:31 437.250
GOMX 1 07 Feb 08:10:39 08:14:55 38° 291° (WNW) 08:18:55 467.674
CUTE-I 07 Feb 08:15:06 08:18:30 17° 302° (WNW) 08:21:54 437.470
CUBEBUG 2 07 Feb 08:15:24 08:18:06 17° 91° (E) 08:20:49 437.445
UWE-3 07 Feb 08:22:58 08:25:20 15° 91° (E) 08:27:43 435.000/436.395/437.385
BRITE-PL 07 Feb 08:28:04 08:31:14 17° 301° (WNW) 08:34:15 437.365/2234.400
Cubesat XI-IV 07 Feb 08:28:26 08:31:05 14° 305° (NW) 08:33:44 437.490
SO-50 07 Feb 08:30:15 08:32:41 13° 335° (NNW) 08:35:07 436.795
UNISAT 6 07 Feb 08:30:55 08:33:55 19° 63° (ENE) 08:36:54 437.425
PRISM 07 Feb 08:35:41 08:37:06 11° 271° (W) 08:38:31 437.425
Oscar 11 07 Feb 08:35:45 08:38:52 19° 92° (E) 08:41:57 145.826/435.025
CUTE 1.7 + AOD 2 07 Feb 08:55:25 08:59:37 55° 287° (WNW) 09:03:48 437.475
COMPASS 1 07 Feb 08:58:26 09:02:41 89° 287° (WNW) 09:06:55 437.405
Cosmos 2499 07 Feb 09:01:45 09:09:02 31° 82° (E) 09:16:28 435.465 / 435.565
SEEDS 07 Feb 09:07:12 09:11:22 54° 287° (WNW) 09:15:30 437.485
ANTELSAT 07 Feb 09:14:37 09:18:47 49° 72° (ENE) 09:22:55 437.575/2403.000
POLYITAN 1 07 Feb 09:20:07 09:22:41 16° 62° (ENE) 09:25:17 437.675
QB50P2 07 Feb 09:20:48 09:23:30 17° 62° (ENE) 09:26:11 145.880/145.840
TIGRISAT 07 Feb 09:22:28 09:26:43 56° 73° (ENE) 09:30:55 435.000
ZACube-1 07 Feb 09:22:45 09:26:46 44° 99° (E) 09:30:50 437.345
CINEMA 3 07 Feb 09:24:04 09:27:50 33° 291° (WNW) 09:31:34 145.822/145.860
GONETS M04 07 Feb 09:27:38 09:36:20 88° 97° (E) 09:45:06
AAUSAT CUBESAT 2 07 Feb 09:30:12 09:34:17 49° 288° (WNW) 09:38:20 437.432
DELFI C3 07 Feb 09:32:45 09:36:35 40° 98° (E) 09:40:25 145.870
FUNcube-1 07 Feb 09:33:21 09:37:29 55° 100° (E) 09:41:39 145.935
O/OREOS (USA 219) 07 Feb 09:37:27 09:41:29 32° 303° (WNW) 09:45:34 437.305
BUGSAT 1 07 Feb 09:40:35 09:42:35 13° 61° (ENE) 09:44:34 437.445
CANX-2 07 Feb 09:40:54 09:43:54 19° 296° (WNW) 09:46:52 2200.000
HO-68 07 Feb 09:44:14 09:50:56 43° 298° (WNW) 09:57:36 435.675
POPSAT HIP 1 07 Feb 09:50:09 09:53:50 30° 68° (ENE) 09:57:32 437.405
CUBEBUG 2 07 Feb 09:51:01 09:55:00 46° 289° (WNW) 09:59:02 437.445
NANOSAT C BR1 07 Feb 09:56:36 10:00:25 34° 69° (ENE) 10:04:15 145.865
UWE-3 07 Feb 09:58:04 10:02:08 53° 287° (WNW) 10:06:15 435.000/436.395/437.385
RS-15 07 Feb 09:58:09 10:04:02 16° 94° (E) 10:09:59 29.354- 29.394
DUCHIFAT 1 07 Feb 09:59:22 10:03:11 34° 69° (ENE) 10:07:01 145.980
QB50P1 07 Feb 10:02:44 10:06:43 40° 70° (ENE) 10:10:42 145.935-145.965
UNISAT 6 07 Feb 10:06:08 10:10:20 47° 261° (W) 10:14:30 437.425
AO-85 07 Feb 10:06:36 10:10:30 21° 109° (ESE) 10:14:31 145.980
HUMSAT D 07 Feb 10:07:20 10:11:17 41° 98° (E) 10:15:15 437.325/437.525
Oscar 11 07 Feb 10:11:04 10:15:13 44° 289° (WNW) 10:19:20 145.826/435.025
DX 1 07 Feb 10:19:25 10:21:06 12° 89° (E) 10:22:47 434.975-435.025
AIST 1 07 Feb 10:22:03 10:25:56 31° 90° (E) 10:29:51
50 SAT 07 Feb 10:22:09 10:24:00 13° 91° (E) 10:25:52 437.505
COMPASS 1 07 Feb 10:36:56 10:37:34 10° 301° (WNW) 10:38:13 437.405
Oscar 19 07 Feb 10:45:03 10:45:07 10° 53° (NE) 10:45:12 437.125/150
Cosmos 2499 07 Feb 10:52:54 11:01:32 66° 283° (WNW) 11:10:25 435.465 / 435.565
ANTELSAT 07 Feb 10:52:58 10:55:47 17° 268° (W) 10:58:36 437.575/2403.000
POLYITAN 1 07 Feb 10:53:56 10:58:06 56° 259° (W) 11:02:17 437.675
QB50P2 07 Feb 10:54:45 10:58:55 53° 260° (W) 11:03:05 145.880/145.840
ZACube-1 07 Feb 10:59:51 11:02:47 19° 296° (WNW) 11:05:45 437.345
TIGRISAT 07 Feb 11:01:21 11:03:47 15° 269° (W) 11:06:11 435.000
VELOX 1 07 Feb 11:01:41 11:05:38 31° 96° (E) 11:09:33 145.980
DELFI C3 07 Feb 11:08:21 11:11:15 19° 295° (WNW) 11:14:08 145.870
FUNcube-1 07 Feb 11:10:51 11:13:21 16° 297° (WNW) 11:15:52 145.935
BUGSAT 1 07 Feb 11:13:14 11:17:27 70° 258° (WSW) 11:21:39 437.445
AISAT 07 Feb 11:17:35 11:21:53 47° 99° (E) 11:26:07 437.250
POPSAT HIP 1 07 Feb 11:26:00 11:29:38 27° 265° (W) 11:33:15 437.405
ESTCUBE 1 07 Feb 11:27:38 11:32:11 66° 102° (ESE) 11:36:42 437.505/2401.250
GONETS M04 07 Feb 11:27:55 11:34:25 23° 300° (WNW) 11:40:58
PCSat 07 Feb 11:31:40 11:37:02 68° 118° (ESE) 11:42:27 145.827
NANOSAT C BR1 07 Feb 11:32:49 11:36:14 23° 266° (W) 11:39:40 145.865
DUCHIFAT 1 07 Feb 11:35:37 11:38:59 23° 266° (W) 11:42:22 145.980
HO-68 07 Feb 11:36:26 11:36:48 10° 319° (NW) 11:37:10 435.675
QB50P1 07 Feb 11:39:33 11:42:41 20° 267° (W) 11:45:49 145.935-145.965
JAS-2 07 Feb 11:41:49 11:48:20 32° 62° (ENE) 11:54:23 435.910
HUMSAT D 07 Feb 11:43:39 11:46:40 20° 295° (WNW) 11:49:43 437.325/437.525
AO-85 07 Feb 11:45:09 11:50:32 71° 308° (NW) 11:56:04 145.980
CUBEBUG 1 07 Feb 11:45:46 11:50:10 77° 101° (ESE) 11:54:31 437.445
UKube-1 07 Feb 11:46:36 11:50:57 84° 104° (ESE) 11:55:16 .
DX 1 07 Feb 11:53:27 11:57:49 71° 286° (WNW) 12:02:08 434.975-435.025
50 SAT 07 Feb 11:54:40 11:58:21 50° 287° (WNW) 12:02:01 437.505
SO-50 07 Feb 11:55:54 11:58:19 13° 25° (NNE) 12:00:42 436.795
AIST 1 07 Feb 11:59:53 12:03:33 26° 288° (WNW) 12:07:16
SPROUT 07 Feb 12:01:00 12:05:03 40° 98° (E) 12:09:03 437.525
RS-15 07 Feb 12:02:56 12:13:54 68° 117° (ESE) 12:25:30 29.354- 29.394
YUBILEINY 07 Feb 12:16:05 12:20:23 14° 51° (NE) 12:24:39 435.215
Oscar 19 07 Feb 12:18:19 12:23:26 62° 72° (ENE) 12:28:34 437.125/150
TISAT 1 07 Feb 12:21:28 12:24:58 25° 95° (E) 12:28:25 437.305
Gurwin Techsat 1B 07 Feb 12:26:57 12:31:32 31° 65° (ENE) 12:36:09 435.225
CUSAT 1 07 Feb 12:27:20 12:33:40 47° 70° (ENE) 12:38:31 437.405
DANDE 07 Feb 12:35:58 12:43:02 38° 66° (ENE) 12:48:43 436.750
VELOX 1 07 Feb 12:38:14 12:42:02 28° 294° (WNW) 12:45:48 145.980
Cosmos 2499 07 Feb 12:51:31 12:56:39 16° 306° (NW) 13:01:51 435.465 / 435.565
AISAT 07 Feb 12:54:52 12:58:03 20° 297° (WNW) 13:01:14 437.250
ESTCUBE 1 07 Feb 13:05:47 13:08:29 16° 299° (WNW) 13:11:12 437.505/2401.250
ITUPSAT 1 07 Feb 13:11:28 13:14:40 17° 91° (E) 13:17:50 437.325
PCSat 07 Feb 13:16:29 13:20:56 25° 319° (NW) 13:25:23 145.827
ITAMSAT 1 07 Feb 13:21:00 13:25:59 49° 69° (ENE) 13:31:00 435.822/435.867
BEESAT 07 Feb 13:21:26 13:25:09 22° 93° (E) 13:28:51 436.000
CUBEBUG 1 07 Feb 13:23:52 13:25:52 13° 301° (WNW) 13:27:52 437.445
UKube-1 07 Feb 13:24:46 13:26:22 12° 302° (WNW) 13:27:59 .
JAS-2 07 Feb 13:25:21 13:33:00 62° 259° (W) 13:40:04 435.910
AO-85 07 Feb 13:28:09 13:32:03 19° 329° (NNW) 13:35:59 145.980
AO-7 07 Feb 13:30:00 13:37:20 36° 55° (NE) 13:44:39 29.400- 29.500
SO-50 07 Feb 13:35:18 13:40:01 48° 47° (NE) 13:44:35 436.795
SPROUT 07 Feb 13:37:34 13:40:46 21° 296° (WNW) 13:43:59 437.525
Cosmos 2504 07 Feb 13:44:27 13:45:40 10° 45° (NE) 13:46:53 435.465 / 435.565
TISAT 1 07 Feb 13:56:58 14:00:39 31° 292° (WNW) 14:04:19 437.305
Oscar 19 07 Feb 13:59:39 14:03:11 18° 269° (W) 14:06:44 437.125/150
Gurwin Techsat 1B 07 Feb 14:06:25 14:11:22 39° 263° (W) 14:16:21 435.225
CUSAT 1 07 Feb 14:10:22 14:15:26 26° 277° (W) 14:19:33 437.405
YUBILEINY 07 Feb 14:10:40 14:19:26 60° 76° (ENE) 14:28:07 435.215
SWISSCUBE 07 Feb 14:12:41 14:17:31 74° 103° (ESE) 14:22:19 437.505
RS-15 07 Feb 14:16:14 14:27:03 47° 324° (NW) 14:38:30 29.354- 29.394
M-CUBED/EXP-1 PRIME 07 Feb 14:16:25 14:19:34 28° 64° (ENE) 14:22:35 437.505
Cosmos 2491 07 Feb 14:18:45 14:26:04 32° 82° (E) 14:33:23 435.465 / 435.565
DANDE 07 Feb 14:19:06 14:26:07 43° 272° (W) 14:31:40 436.750
AUBIESAT-1 07 Feb 14:28:36 14:31:52 31° 65° (ENE) 14:34:58 437.475
HORYU 2 07 Feb 14:37:10 14:40:38 23° 64° (ENE) 14:44:07 437.375
ITUPSAT 1 07 Feb 14:48:08 14:52:53 59° 288° (WNW) 14:57:36 437.325
BEESAT 07 Feb 14:58:34 15:03:10 46° 290° (WNW) 15:07:44 436.000
ITAMSAT 1 07 Feb 15:01:37 15:05:42 23° 267° (W) 15:09:50 435.822/435.867
SO-50 07 Feb 15:16:19 15:20:16 26° 247° (WSW) 15:24:06 436.795
JAS-2 07 Feb 15:16:55 15:19:09 11° 277° (W) 15:21:22 435.910
MOZHAYETS 4 07 Feb 15:19:31 15:23:00 21° 92° (E) 15:26:29
AO-7 07 Feb 15:21:24 15:29:40 63° 256° (WSW) 15:38:00 29.400- 29.500
Cosmos 2504 07 Feb 15:33:33 15:41:55 46° 71° (ENE) 15:49:45 435.465 / 435.565
STARS 07 Feb 15:35:43 15:39:48 38° 98° (E) 15:43:53 437.465
KKS-1 07 Feb 15:45:17 15:49:45 87° 100° (E) 15:54:11 437.445
M-CUBED/EXP-1 PRIME 07 Feb 15:51:20 15:54:15 21° 258° (WSW) 15:57:01 437.505
SWISSCUBE 07 Feb 15:51:55 15:54:44 16° 301° (WNW) 15:57:35 437.505
AUBIESAT-1 07 Feb 16:03:51 16:06:30 19° 259° (W) 16:09:04 437.475
YUBILEINY 07 Feb 16:08:09 16:15:43 33° 277° (W) 16:23:14 435.215
HORYU 2 07 Feb 16:12:51 16:17:00 39° 262° (W) 16:21:10 437.375
Cosmos 2491 07 Feb 16:13:44 16:22:21 62° 284° (WNW) 16:30:59 435.465 / 435.565
CUTE-I 07 Feb 16:19:21 16:23:33 24° 62° (ENE) 16:27:46 437.470
BRITE-PL 07 Feb 16:24:30 16:27:50 16° 59° (ENE) 16:31:07 437.365/2234.400
O/OREOS (USA 219) 07 Feb 16:27:35 16:29:44 13° 46° (NE) 16:31:54 437.305
Cubesat XI-IV 07 Feb 16:31:45 16:36:19 30° 64° (ENE) 16:40:55 437.490
RS-15 07 Feb 16:33:30 16:43:23 30° 358° (N) 16:53:38 29.354- 29.394
AO-85 07 Feb 16:55:44 16:57:53 12° 18° (NNE) 17:00:00 145.980
MOZHAYETS 4 07 Feb 16:55:58 17:00:24 46° 289° (WNW) 17:04:49
ISS 07 Feb 17:02:47 17:05:56 51° 145° (SE) 17:09:06 145.825
STARS 07 Feb 17:12:32 17:15:59 23° 295° (WNW) 17:19:25 437.465
AO-7 07 Feb 17:21:12 17:24:07 12° 276° (W) 17:27:02 29.400- 29.500
KKS-1 07 Feb 17:24:03 17:25:39 12° 302° (WNW) 17:27:15 437.445
Cosmos 2504 07 Feb 17:27:11 17:35:16 44° 274° (W) 17:42:52 435.465 / 435.565
CUBESAT XI-V 07 Feb 17:29:12 17:33:46 46° 98° (E) 17:38:16 437.345
LilacSat-2 07 Feb 17:31:55 17:35:44 82° 79° (E) 17:39:34 437.200
DOVE 4 07 Feb 17:38:03 17:41:30 19° 63° (ENE) 17:44:50 437.250
GONETS M04 07 Feb 17:41:53 17:44:13 11° 48° (NE) 17:46:33
GOMX 1 07 Feb 17:42:01 17:46:55 36° 68° (ENE) 17:51:39 467.674
BEESAT 3 07 Feb 17:46:49 17:50:42 53° 121° (ESE) 17:54:36 437.485
CUTE-I 07 Feb 17:58:05 18:03:16 53° 260° (W) 18:08:30 437.470
BRITE-PL 07 Feb 17:59:50 18:05:34 89° 74° (ENE) 18:11:12 437.365/2234.400
O/OREOS (USA 219) 07 Feb 18:05:18 18:09:55 84° 66° (ENE) 18:14:31 437.305
BEESAT 2 07 Feb 18:06:17 18:10:13 55° 121° (ESE) 18:14:10 435.950
Cubesat XI-IV 07 Feb 18:11:15 18:16:14 41° 262° (W) 18:21:17 437.490
CUTE 1.7 + AOD 2 07 Feb 18:16:18 18:18:42 15° 62° (ENE) 18:21:07 437.475
Cosmos 2491 07 Feb 18:17:01 18:21:20 14° 308° (NW) 18:25:40 435.465 / 435.565
SEEDS 07 Feb 18:27:19 18:29:40 15° 62° (ENE) 18:32:03 437.485
HO-68 07 Feb 18:27:20 18:33:55 41° 62° (ENE) 18:40:31 435.675
PCSat 07 Feb 18:34:46 18:38:39 19° 37° (NE) 18:42:32 145.827
AO-85 07 Feb 18:35:15 18:40:05 34° 42° (NE) 18:44:34 145.980
ISS 07 Feb 18:39:27 18:42:29 36° 343° (NNW) 18:45:33 145.825
STRAND 1 07 Feb 18:44:21 18:49:03 34° 96° (E) 18:53:44 437.568
RS-15 07 Feb 18:48:48 19:00:03 43° 31° (NNE) 19:11:34 29.354- 29.394
AAUSAT CUBESAT 2 07 Feb 18:48:54 18:51:19 15° 62° (ENE) 18:53:46 437.432
CINEMA 3 07 Feb 18:50:41 18:54:42 30° 68° (ENE) 18:58:34 145.822/145.860
Cosmos 2499 07 Feb 18:51:29 18:55:05 13° 49° (NE) 18:58:35 435.465 / 435.565
CANX-2 07 Feb 18:59:00 19:02:59 43° 71° (ENE) 19:07:01 2200.000
CUBESAT XI-V 07 Feb 19:07:13 19:10:52 22° 296° (WNW) 19:14:29 437.345
DOVE 4 07 Feb 19:13:39 19:18:46 64° 259° (W) 19:23:38 437.250
CUBEBUG 2 07 Feb 19:15:46 19:18:54 20° 65° (ENE) 19:21:59 437.445
GOMX 1 07 Feb 19:20:04 19:24:58 34° 264° (W) 19:29:44 467.674
UWE-3 07 Feb 19:22:21 19:25:07 17° 63° (ENE) 19:27:50 435.000/436.395/437.385
BEESAT 3 07 Feb 19:25:39 19:28:45 21° 320° (NW) 19:31:51 437.485
Oscar 11 07 Feb 19:32:50 19:35:58 20° 64° (ENE) 19:39:08 145.826/435.025
GONETS M04 07 Feb 19:35:11 19:43:41 50° 73° (ENE) 19:52:11
AIST 2 07 Feb 19:41:28 19:45:34 58° 121° (ESE) 19:49:41 435.215
BRITE-PL 07 Feb 19:41:39 19:44:41 15° 273° (W) 19:47:42 437.365/2234.400
BEESAT 2 07 Feb 19:45:19 19:48:25 21° 320° (NW) 19:51:32 435.950
O/OREOS (USA 219) 07 Feb 19:47:20 19:48:35 11° 263° (W) 19:49:51 437.305
CUTE 1.7 + AOD 2 07 Feb 19:49:57 19:54:06 59° 260° (W) 19:58:17 437.475
COMPASS 1 07 Feb 19:51:07 19:55:14 81° 77° (ENE) 19:59:26 437.405
SEEDS 07 Feb 20:00:49 20:04:55 59° 260° (W) 20:09:05 437.485
PRISM 07 Feb 20:11:55 20:16:08 84° 101° (E) 20:20:19 437.425
HO-68 07 Feb 20:14:45 20:21:33 45° 261° (W) 20:28:25 435.675
AO-85 07 Feb 20:15:51 20:20:44 43° 243° (WSW) 20:25:14 145.980
ISS 07 Feb 20:16:42 20:19:30 26° 4° (N) 20:22:20 145.825
PCSat 07 Feb 20:17:24 20:22:53 85° 57° (ENE) 20:28:19 145.827
ZACube-1 07 Feb 20:20:38 20:24:40 45° 72° (ENE) 20:28:40 437.345
DELFI C3 07 Feb 20:21:15 20:24:47 32° 69° (ENE) 20:28:22 145.870
AAUSAT CUBESAT 2 07 Feb 20:22:21 20:26:24 55° 260° (W) 20:30:30 437.432
STRAND 1 07 Feb 20:23:35 20:28:12 34° 294° (WNW) 20:32:47 437.568
CINEMA 3 07 Feb 20:27:39 20:31:48 31° 264° (W) 20:35:48 145.822/145.860
AIST 1 07 Feb 20:28:42 20:29:49 11° 64° (ENE) 20:30:56
FUNcube-1 07 Feb 20:30:56 20:35:03 56° 73° (ENE) 20:39:08 145.935
CANX-2 07 Feb 20:36:10 20:39:05 18° 268° (W) 20:42:01 2200.000
Cosmos 2499 07 Feb 20:42:09 20:50:36 56° 75° (ENE) 20:58:22 435.465 / 435.565
CUBEBUG 2 07 Feb 20:51:08 20:55:17 43° 261° (W) 20:59:22 437.445
ESTCUBE 1 07 Feb 20:56:54 20:57:32 10° 56° (ENE) 20:58:11 437.505/2401.250
UWE-3 07 Feb 20:57:04 21:01:15 51° 261° (W) 21:05:22 435.000/436.395/437.385
HUMSAT D 07 Feb 21:00:52 21:04:38 37° 70° (ENE) 21:08:25 437.325/437.525
RS-15 07 Feb 21:01:43 21:13:53 82° 238° (WSW) 21:26:14 29.354- 29.394
Oscar 11 07 Feb 21:07:44 21:11:50 43° 262° (W) 21:15:58 145.826/435.025
UKube-1 07 Feb 21:10:31 21:11:57 11° 58° (ENE) 21:13:23 .
CUBEBUG 1 07 Feb 21:11:29 21:12:22 11° 57° (ENE) 21:13:15 437.445
DX 1 07 Feb 21:16:49 21:19:26 16° 61° (ENE) 21:22:02 434.975-435.025
AIST 2 07 Feb 21:21:11 21:24:25 21° 321° (NW) 21:27:38 435.215
GONETS M04 07 Feb 21:32:23 21:40:19 40° 274° (W) 21:48:18
PRISM 07 Feb 21:49:31 21:50:50 11° 302° (WNW) 21:52:10 437.425
ISS 07 Feb 21:53:12 21:56:25 56° 24° (NNE) 21:59:37 145.825
UNISAT 6 07 Feb 21:55:35 21:59:20 28° 96° (E) 22:03:05 437.425
DELFI C3 07 Feb 21:56:39 21:59:46 22° 266° (W) 22:02:56 145.870
ZACube-1 07 Feb 21:58:26 22:01:14 17° 268° (W) 22:04:01 437.345
VELOX 1 07 Feb 22:00:57 22:05:04 37° 69° (ENE) 22:09:11 145.980
PCSat 07 Feb 22:02:33 22:05:32 15° 256° (WSW) 22:08:29 145.827
AIST 1 07 Feb 22:03:41 22:08:05 82° 262° (W) 22:12:24
FUNcube-1 07 Feb 22:09:27 22:11:40 14° 270° (W) 22:13:52 145.935
AISAT 07 Feb 22:16:52 22:21:15 56° 71° (ENE) 22:25:38 437.250
ESTCUBE 1 07 Feb 22:29:02 22:33:32 78° 75° (ENE) 22:38:06 437.505/2401.250
Cosmos 2499 07 Feb 22:35:55 22:43:16 34° 277° (W) 22:50:10 435.465 / 435.565
50 SAT 07 Feb 22:36:44 22:40:26 76° 258° (WSW) 22:44:10 437.505
HUMSAT D 07 Feb 22:37:25 22:40:26 20° 267° (W) 22:43:27 437.325/437.525
POLYITAN 1 07 Feb 22:37:28 22:40:33 19° 93° (E) 22:43:37 437.675
QB50P2 07 Feb 22:38:11 22:41:22 20° 93° (E) 22:44:31 145.880/145.840
ANTELSAT 07 Feb 22:40:17 22:44:37 82° 103° (ESE) 22:49:01 437.575/2403.000
UKube-1 07 Feb 22:42:59 22:47:20 88° 255° (WSW) 22:51:43 .
CUBEBUG 1 07 Feb 22:43:28 22:47:54 82° 77° (ENE) 22:52:23 437.445
TIGRISAT 07 Feb 22:48:02 22:52:21 87° 279° (W) 22:56:43 435.000
DX 1 07 Feb 22:50:48 22:55:08 63° 258° (WSW) 22:59:31 434.975-435.025
BUGSAT 1 07 Feb 22:54:31 22:56:39 14° 90° (E) 22:58:45 437.445
SPROUT 07 Feb 22:56:41 23:00:44 41° 70° (ENE) 23:04:47 437.525
POPSAT HIP 1 07 Feb 23:08:00 23:11:58 39° 98° (E) 23:15:54 437.405
NANOSAT C BR1 07 Feb 23:14:10 23:18:13 45° 99° (E) 23:22:14 145.865
TISAT 1 07 Feb 23:15:21 23:18:52 26° 67° (ENE) 23:22:25 437.305
RS-15 07 Feb 23:15:51 23:24:33 24° 261° (W) 23:33:20 29.354- 29.394
DUCHIFAT 1 07 Feb 23:16:40 23:20:42 45° 99° (E) 23:24:43 145.980
QB50P1 07 Feb 23:20:46 23:24:55 55° 100° (E) 23:29:02 145.935-145.965
ISS 07 Feb 23:29:58 23:32:41 25° 221° (SW) 23:35:24 145.825
UNISAT 6 07 Feb 23:32:16 23:36:02 30° 292° (WNW) 23:39:50 437.425
VELOX 1 07 Feb 23:38:00 23:41:38 24° 266° (W) 23:45:17 145.980
SWISSCUBE 07 Feb 23:46:08 23:48:47 15° 59° (ENE) 23:51:25 437.505
AISAT 07 Feb 23:55:17 23:58:05 16° 269° (W) 00:00:53 437.250
CUSAT 1 07 Feb 23:55:19 23:56:52 11° 73° (ENE) 23:58:26 437.405
ESTCUBE 1 08 Feb 00:09:18 00:10:56 12° 272° (W) 00:12:33 437.505/2401.250
POLYITAN 1 08 Feb 00:12:36 00:16:33 40° 290° (WNW) 00:20:29 437.675
QB50P2 08 Feb 00:13:24 00:17:20 38° 290° (WNW) 00:21:14 145.880/145.840
ANTELSAT 08 Feb 00:19:08 00:20:45 12° 301° (WNW) 00:22:22 437.575/2403.000
ITUPSAT 1 08 Feb 00:20:08 00:24:05 26° 64° (ENE) 00:28:03 437.325
CUBEBUG 1 08 Feb 00:23:48 00:24:47 11° 272° (W) 00:25:47 437.445
Cosmos 2491 08 Feb 00:25:43 00:31:20 18° 56° (NE) 00:36:56 435.465 / 435.565
BEESAT 3 08 Feb 00:26:12 00:27:51 12° 32° (NNE) 00:29:30 437.485
TIGRISAT 08 Feb 00:27:38 00:28:22 10° 302° (WNW) 00:29:06 435.000
BUGSAT 1 08 Feb 00:28:25 00:32:24 53° 288° (WNW) 00:36:18 437.445
Oscar 19 08 Feb 00:28:40 00:32:10 18° 91° (E) 00:35:38 437.125/150
BEESAT 08 Feb 00:29:48 00:34:01 32° 66° (ENE) 00:38:15 436.000
SPROUT 08 Feb 00:33:42 00:36:53 20° 268° (W) 00:40:04 437.525
JAS-2 08 Feb 00:35:19 00:38:34 15° 86° (E) 00:41:39 435.910
POPSAT HIP 1 08 Feb 00:44:22 00:47:32 21° 295° (WNW) 00:50:40 437.405
BEESAT 2 08 Feb 00:46:08 00:47:58 13° 32° (NNE) 00:49:48 435.950
TISAT 1 08 Feb 00:50:41 00:54:27 31° 263° (W) 00:58:14 437.305
NANOSAT C BR1 08 Feb 00:50:43 00:53:39 19° 296° (WNW) 00:56:34 145.865
DUCHIFAT 1 08 Feb 00:53:13 00:56:06 18° 297° (WNW) 00:58:59 145.980
QB50P1 08 Feb 00:57:44 01:00:17 16° 298° (WNW) 01:02:50 145.935-145.965
KKS-1 08 Feb 01:11:36 01:13:41 13° 59° (ENE) 01:15:47 437.445
SWISSCUBE 08 Feb 01:21:12 01:25:58 77° 256° (WSW) 01:30:46 437.505
YUBILEINY 08 Feb 01:24:21 01:27:36 13° 70° (ENE) 01:30:50 435.215
CUSAT 1 08 Feb 01:29:52 01:37:27 53° 92° (E) 01:45:12 437.405
ITAMSAT 1 08 Feb 01:33:01 01:35:50 14° 89° (E) 01:38:38 435.822/435.867
DANDE 08 Feb 01:44:41 01:51:46 42° 88° (E) 01:59:32 436.750
ITUPSAT 1 08 Feb 01:57:17 02:01:45 39° 262° (W) 02:06:15 437.325
BEESAT 3 08 Feb 02:02:27 02:06:25 64° 52° (NE) 02:10:19 437.485
PHONESAT 2.4 08 Feb 02:03:08 02:05:24 17° 159° (SSE) 02:07:40 2401.200-2431.200
Oscar 19 08 Feb 02:06:51 02:11:56 62° 288° (WNW) 02:16:58 437.125/150
BEESAT 08 Feb 02:07:35 02:11:48 31° 264° (W) 02:16:02 436.000
JAS-2 08 Feb 02:18:39 02:24:33 76° 287° (WNW) 02:29:52 435.910
Gurwin Techsat 1B 08 Feb 02:19:47 02:25:08 70° 103° (ESE) 02:30:26 435.225
Cosmos 2491 08 Feb 02:21:05 02:29:53 76° 80° (E) 02:38:39 435.465 / 435.565
BEESAT 2 08 Feb 02:22:38 02:26:39 68° 53° (NE) 02:30:36 435.950
MOZHAYETS 4 08 Feb 02:23:32 02:27:16 25° 65° (ENE) 02:31:02
AIST 2 08 Feb 02:23:34 02:25:50 14° 33° (NNE) 02:28:07 435.215
STARS 08 Feb 02:34:17 02:38:29 45° 70° (ENE) 02:42:42 437.465
KKS-1 08 Feb 02:45:11 02:49:39 79° 256° (WSW) 02:54:09 437.445
ITAMSAT 1 08 Feb 03:10:40 03:15:55 79° 287° (WNW) 03:21:09 435.822/435.867
CUSAT 1 08 Feb 03:12:31 03:19:57 41° 291° (WNW) 03:27:28 437.405
YUBILEINY 08 Feb 03:13:52 03:22:28 64° 92° (E) 03:31:10 435.215
AO-7 08 Feb 03:20:34 03:28:18 40° 98° (E) 03:35:57 29.400- 29.500
DANDE 08 Feb 03:27:05 03:34:35 51° 289° (WNW) 03:42:51 436.750
M-CUBED/EXP-1 PRIME 08 Feb 03:28:59 03:30:30 13° 98° (E) 03:32:04 437.505
PHONESAT 2.4 08 Feb 03:39:12 03:42:11 33° 175° (S) 03:45:10 2401.200-2431.200
AUBIESAT-1 08 Feb 03:40:22 03:42:20 14° 99° (E) 03:44:21 437.475
BEESAT 3 08 Feb 03:41:42 03:43:40 13° 250° (WSW) 03:45:38 437.485
